FW5335 Weather Reports


time (UTC)temp
C
wind
direction
speed
KPH
gust
KPH
rain 1hr
cm
rain 24hr
cm
rain mn
cm
humidity
%
barometer
mb
20260504184519 15 68 4.8 12.9 0.00 0.00 0.00 75 1014.9
20260504183518 15 68 4.8 12.9 0.00 0.00 0.00 76 1014.7
20260504182519 15 68 4.8 8.0 0.00 0.00 0.00 75 1014.7
20260504181518 15 68 6.4 12.9 0.00 0.00 0.00 75 1014.4
20260504180519 15 90 4.8 11.3 0.00 0.00 0.00 75 1014.5
20260504175522 15 68 4.8 11.3 0.00 0.00 0.00 75 1014.7
20260504174520 15 68 6.4 14.5 0.00 0.00 0.00 74 1014.5
20260504173524 15 68 6.4 14.5 0.00 0.00 0.00 75 1014.5
20260504172519 15 90 4.8 11.3 0.00 0.00 0.00 74 1014.6
20260504171539 16 68 6.4 12.9 0.00 0.00 0.00 75 1014.5
20260504170518 16 68 6.4 17.7 0.00 0.00 0.00 74 1014.6
20260504150518 16 0 11.3 16.1 0.00 0.00 0.00 72 1014.5
20260504140519 18 23 12.9 20.9 0.00 0.00 0.00 65 1014.8
20260504130523 21 180 4.8 12.9 0.00 0.00 0.00 48 1014.9
20260504110538 17 135 6.4 14.5 0.00 0.00 0.00 65 1015.2
20260504100519 16 113 4.8 12.9 0.00 0.00 0.00 73 1015.1
20260504081518 14 248 1.6 4.8 0.00 0.00 0.00 79 1014.8
20260504080517 14 270 1.6 4.8 0.00 0.00 0.00 80 1014.7
20260504050518 10 0.0 0.0 0.00 0.00 0.00 91 1012.9
20260504045608 10 0.0 0.0 0.00 0.00 0.00 91 1012.9
20260504044518 10 0.0 0.0 0.00 0.00 0.00 90 1012.7
20260504043517 10 0.0 0.0 0.00 0.00 0.00 90 1012.7
20260504042528 10 0.0 0.0 0.00 0.00 0.00 90 1012.9
20260504041518 11 0.0 0.0 0.00 0.00 0.00 90 1012.9
20260504040518 11 0.0 0.0 0.00 0.00 0.00 90 1012.9
20260504035558 11 0.0 0.0 0.00 0.00 0.00 91 1012.9
20260504034518 11 0.0 0.0 0.00 0.00 0.00 91 1013.0
20260504033517 11 0.0 1.6 0.00 0.00 0.00 91 1012.8
20260504031541 11 0.0 0.0 0.00 0.00 0.00 91 1012.9
20260504030516 11 0.0 1.6 0.00 0.00 0.00 91 1013.0
20260504025518 11 203 1.6 4.8 0.00 0.00 0.00 91 1013.1
20260504024523 11 0.0 0.0 0.00 0.00 0.00 90 1013.0
20260504023518 11 0.0 0.0 0.00 0.00 0.00 91 1012.9
20260504022520 11 0.0 0.0 0.00 0.00 0.00 90 1012.9
20260504021519 11 0.0 0.0 0.00 0.00 0.00 90 1013.0
20260504020519 11 0.0 0.0 0.00 0.00 0.00 90 1013.0
20260504015519 11 0.0 0.0 0.00 0.00 0.00 90 1013.0
20260504014528 11 0.0 0.0 0.00 0.00 0.00 90 1012.9
20260504013523 11 0.0 0.0 0.00 0.00 0.00 90 1012.9
20260504012530 11 0.0 0.0 0.00 0.00 0.00 89 1012.8
20260504011519 11 0.0 0.0 0.00 0.00 0.00 89 1012.7
20260504010523 11 0.0 0.0 0.00 0.00 0.00 89 1012.7
20260504005518 11 203 1.6 3.2 0.00 0.00 0.00 89 1012.7
20260504004518 11 203 1.6 4.8 0.00 0.00 0.00 89 1012.7
20260504003524 11 203 1.6 3.2 0.00 0.00 0.00 89 1012.6
20260504002518 11 203 1.6 3.2 0.00 0.03 0.00 89 1012.7
20260504001529 11 203 1.6 4.8 0.00 0.03 0.00 89 1012.7
20260504000519 11 203 1.6 3.2 0.00 0.03 0.00 89 1012.7
20260503235519 11 203 1.6 4.8 0.00 0.03 0.00 89 1012.7
20260503234519 11 203 1.6 3.2 0.00 0.03 0.00 89 1012.8
20260503233518 11 0.0 3.2 0.00 0.03 0.00 89 1012.8
20260503232519 11 203 1.6 3.2 0.00 0.03 0.00 89 1012.8
20260503231538 11 203 1.6 8.0 0.00 0.03 0.00 89 1012.8
20260503230540 11 203 4.8 8.0 0.00 0.03 0.00 90 1012.8
20260503225519 11 180 4.8 8.0 0.00 0.03 0.03 90 1012.8
20260503224518 11 225 3.2 11.3 0.00 0.03 0.03 90 1012.6
20260503223520 11 0.0 0.0 0.00 0.03 0.03 89 1012.6
20260503222540 11 0.0 0.0 0.00 0.03 0.03 89 1012.6
20260503221521 11 225 1.6 3.2 0.00 0.03 0.03 89 1012.5
20260503220520 11 225 1.6 4.8 0.00 0.03 0.03 89 1012.3
20260503215519 11 270 3.2 6.4 0.00 0.03 0.03 89 1012.3
20260503214524 11 0.0 0.0 0.00 0.03 0.03 88 1012.3
20260503213541 11 0.0 3.2 0.00 0.03 0.03 88 1012.1
20260503212524 11 0.0 3.2 0.00 0.03 0.03 88 1012.0
20260503211524 11 0.0 1.6 0.00 0.03 0.03 88 1011.9
20260503210520 11 270 1.6 3.2 0.00 0.03 0.03 88 1011.9
20260503205520 11 0.0 3.2 0.00 0.03 0.03 87 1011.8
20260503204526 11 270 1.6 6.4 0.00 0.03 0.03 87 1011.8
20260503203544 11 270 1.6 4.8 0.00 0.03 0.03 87 1011.8
20260503202520 11 225 1.6 3.2 0.00 0.03 0.03 86 1011.7
20260503201519 11 225 3.2 8.0 0.00 0.03 0.03 85 1011.4
20260503200519 12 225 4.8 11.3 0.00 0.03 0.03 85 1011.3
20260503195543 12 225 3.2 6.4 0.00 0.03 0.03 84 1011.2
20260503194539 12 225 3.2 6.4 0.00 0.03 0.03 84 1011.2
20260503193519 12 203 3.2 6.4 0.00 0.03 0.03 83 1011.0
20260503192519 13 225 4.8 8.0 0.00 0.05 0.03 82 1010.9
20260503191519 13 225 3.2 6.4 0.00 0.05 0.03 81 1010.6
20260503190534 13 0.0 4.8 0.00 0.05 0.03 80 1010.8
20260503185546 14 0.0 1.6 0.00 0.05 0.03 79 1010.7